Date String (YYYY-MM-DD hh:mm:ss) UTC,Instrument flags,absolute air pressure of the measurement (hPa),sample flow rate (lpm),inlet stack bypass flow (lpm),air temperature of the measurement (°C),ambient temperature measured by the external sensor (°C),aerosol sample conditioner tube jacket temperature (°C),OPC LED temperature (°C),internal box temperature (°C),relative humidity of the measurement (%),span deviation,mass concentration of particles derived from Lorenz-Mie calculation of OPC scattering (μg/m³),mass concentration of particles derived from Lorenz-Mie calculation of OPC scattering (μg/m³),mass concentration of particles derived from Lorenz-Mie calculation of OPC scattering (μg/m³)
DateTimeUTC,F1_M11,P_M11,Q1_M11,Q2_M11,T1_M11,T2_M11,T3_M11,T4_M11,T5_M11,U1_M11,ZSPAN_M11,X0_M11,X2_M11,X1_M11
2024-04-01 17:00:00,SystemResetWarning,0821.7,5.00,000.00,020.9,020.3,000.0,029.3,022.7,24.8,0000.0,0002.62,0001.91,0001.71
2024-04-01 17:01:00,SystemResetWarning,0821.7,5.00,000.00,020.9,020.3,000.0,029.4,022.7,25.1,0000.0,0002.49,0002.02,0001.80
2024-04-01 17:02:00,SystemResetWarning,0821.7,5.00,000.00,020.9,020.3,000.0,029.4,022.7,24.7,0000.0,0002.61,0002.14,0001.89
2024-04-01 17:03:00,SystemResetWarning,0821.7,4.99,000.00,020.9,020.3,000.0,029.4,022.7,24.9,0000.0,0002.74,0002.24,0001.98
2024-04-01 17:04:00,SystemResetWarning,0821.6,5.00,000.00,020.9,020.3,000.0,029.4,022.7,25.6,0000.0,0002.83,0002.33,0002.07
2024-04-01 17:05:00,SystemResetWarning,0821.6,5.01,000.00,020.9,020.3,000.0,029.4,022.7,25.6,0000.0,0002.95,0002.43,0002.17
2024-04-01 17:06:00,SystemResetWarning,0821.6,5.00,000.00,020.9,020.3,000.0,029.4,022.7,25.6,0000.0,0003.10,0002.55,0002.27
2024-04-01 17:07:00,SystemResetWarning,0821.6,5.00,000.00,020.9,020.3,000.0,029.4,022.7,25.7,0000.0,0003.19,0002.64,0002.36
2024-04-01 17:08:00,SystemResetWarning,0821.5,5.00,000.00,020.9,020.3,000.0,029.4,022.7,25.8,0000.0,0003.25,0002.72,0002.44
2024-04-01 17:09:00,SystemResetWarning,0821.6,4.99,000.00,020.9,020.3,000.0,029.4,022.7,25.5,0000.0,0003.38,0002.80,0002.49
2024-04-01 17:10:00,SystemResetWarning,0821.6,4.99,000.00,020.9,020.3,000.0,029.4,022.7,25.2,0000.0,0003.44,0002.84,0002.52
2024-04-01 17:11:00,SystemResetWarning,0821.5,5.00,000.00,020.9,020.3,000.0,029.4,022.7,24.9,0000.0,0003.52,0002.89,0002.57
2024-04-01 17:12:00,SystemResetWarning,0821.8,5.01,000.00,020.9,020.3,000.0,029.4,022.7,24.7,0000.0,0003.54,0002.92,0002.60
2024-04-01 17:13:00,SystemResetWarning,0821.9,5.01,000.00,020.9,020.3,000.0,029.4,022.7,25.1,0000.0,0003.57,0002.94,0002.62
2024-04-01 17:14:00,SystemResetWarning,0822.0,5.01,000.00,020.9,020.3,000.0,029.4,022.7,25.0,0000.0,0003.60,0002.96,0002.64
2024-04-01 17:15:00,SystemResetWarning,0822.0,5.00,000.00,020.9,020.3,000.0,029.4,022.7,25.4,0000.0,0003.58,0002.97,0002.67
2024-04-01 17:16:00,SystemResetWarning,0822.0,5.00,000.00,020.9,020.2,000.0,029.4,022.7,25.4,0000.0,0003.69,0003.00,0002.70
2024-04-01 17:17:00,SystemResetWarning,0822.0,4.99,000.00,020.9,020.2,000.0,029.4,022.7,25.3,0000.0,0003.83,0003.08,0002.74
2024-04-01 17:18:00,SystemResetWarning,0822.1,4.99,000.00,020.9,020.2,000.0,029.4,022.7,24.7,0000.0,0003.90,0003.11,0002.78
2024-04-01 17:19:00,SystemResetWarning,0821.9,5.01,000.00,020.9,020.2,000.0,029.4,022.7,24.6,0000.0,0003.93,0003.12,0002.81
2024-04-01 17:20:00,SystemResetWarning,0822.0,5.01,000.00,020.9,020.2,000.0,029.4,022.7,24.5,0000.0,0003.86,0003.11,0002.83
2024-04-01 17:21:00,SystemResetWarning,0821.6,5.00,000.00,020.9,020.1,000.0,029.4,022.6,24.6,0000.0,0003.81,0003.11,0002.85
2024-04-01 17:22:00,SystemResetWarning,0821.5,4.99,000.00,020.9,020.1,000.0,029.4,022.6,24.3,0000.0,0003.78,0003.11,0002.86
2024-04-01 17:23:00,SystemResetWarning,0821.6,4.99,000.00,020.9,020.1,000.0,029.4,022.6,24.1,0000.0,0003.80,0003.12,0002.88
2024-04-01 17:24:00,SystemResetWarning,0821.6,5.00,000.00,020.8,020.0,000.0,029.4,022.6,24.8,0000.0,0003.83,0003.12,0002.89
2024-04-01 17:25:00,SystemResetWarning,0821.5,4.99,000.00,020.8,020.0,000.0,029.4,022.6,25.4,0000.0,0003.82,0003.13,0002.90
2024-04-01 17:26:00,SystemResetWarning,0821.6,5.00,000.00,020.8,020.0,000.0,029.4,022.6,25.7,0000.0,0003.95,0003.16,0002.91
2024-04-01 17:27:00,SystemResetWarning,0821.5,5.01,000.00,020.8,020.0,000.0,029.4,022.5,25.2,0000.0,0003.90,0003.16,0002.91
2024-04-01 17:28:00,SystemResetWarning,0821.5,5.01,000.00,020.8,019.9,000.0,029.4,022.5,25.4,0000.0,0003.76,0003.12,0002.88
2024-04-01 17:29:00,SystemResetWarning,0822.0,4.99,000.00,020.8,019.9,000.0,029.4,022.5,25.1,0000.0,0003.73,0003.11,0002.86
2024-04-01 17:30:00,SystemResetWarning,0822.0,5.00,000.00,020.8,019.9,000.0,029.4,022.5,25.0,0000.0,0003.69,0003.10,0002.85
2024-04-01 17:31:00,SystemResetWarning,0822.0,5.01,000.00,020.8,019.9,000.0,029.4,022.5,24.9,0000.0,0003.72,0003.11,0002.86
2024-04-01 17:32:00,SystemResetWarning,0822.0,5.01,000.00,020.7,019.9,000.0,029.3,022.5,25.3,0000.0,0003.79,0003.12,0002.85
2024-04-01 17:33:00,SystemResetWarning,0822.0,5.00,000.00,020.8,019.9,000.0,029.3,022.5,25.8,0000.0,0004.02,0003.14,0002.84
2024-04-01 17:34:00,SystemResetWarning,0821.9,5.00,000.00,020.7,019.9,000.0,029.3,022.5,26.2,0000.0,0004.04,0003.15,0002.86
2024-04-01 17:35:00,SystemResetWarning,0821.9,5.01,000.00,020.7,019.9,000.0,029.3,022.5,26.2,0000.0,0004.03,0003.16,0002.90
2024-04-01 17:36:00,SystemResetWarning,0821.6,4.99,000.00,020.7,019.9,000.0,029.3,022.5,25.9,0000.0,0004.12,0003.19,0002.93
2024-04-01 17:37:00,SystemResetWarning,0821.6,5.00,000.00,020.7,020.0,000.0,029.3,022.5,25.7,0000.0,0004.13,0003.21,0002.96
2024-04-01 17:38:00,SystemResetWarning,0821.6,4.99,000.00,020.7,020.0,000.0,029.3,022.5,25.5,0000.0,0004.12,0003.23,0003.02
2024-04-01 17:39:00,SystemResetWarning,0821.6,5.00,000.00,020.7,020.0,000.0,029.3,022.5,25.4,0000.0,0004.26,0003.29,0003.10
2024-04-01 17:40:00,SystemResetWarning,0821.6,5.02,000.00,020.8,020.0,000.0,029.3,022.5,25.1,0000.0,0004.34,0003.33,0003.13
2024-04-01 17:41:00,SystemResetWarning,0821.6,5.01,000.00,020.8,020.0,000.0,029.3,022.5,24.7,0000.0,0004.33,0003.35,0003.16
2024-04-01 17:42:00,SystemResetWarning,0821.6,4.99,000.00,020.8,020.0,000.0,029.3,022.5,24.3,0000.0,0004.40,0003.38,0003.18
2024-04-01 17:43:00,SystemResetWarning,0821.6,4.99,000.00,020.8,020.0,000.0,029.3,022.5,24.8,0000.0,0004.41,0003.40,0003.20
2024-04-01 17:44:00,SystemResetWarning,0821.5,5.00,000.00,020.8,020.0,000.0,029.3,022.5,25.6,0000.0,0004.31,0003.42,0003.24
2024-04-01 17:45:00,SystemResetWarning,0821.7,5.02,000.00,020.8,020.0,000.0,029.3,022.5,25.9,0000.0,0004.41,0003.46,0003.28
2024-04-01 17:46:00,SystemResetWarning,0821.6,5.00,000.00,020.8,020.0,000.0,029.3,022.5,25.5,0000.0,0004.48,0003.49,0003.31
2024-04-01 17:47:00,SystemResetWarning,0821.7,4.98,000.00,020.8,020.0,000.0,029.3,022.5,25.2,0000.0,0004.41,0003.49,0003.33
2024-04-01 17:48:00,SystemResetWarning,0821.6,5.00,000.00,020.8,020.0,000.0,029.3,022.5,25.2,0000.0,0004.36,0003.50,0003.36
2024-04-01 17:49:00,SystemResetWarning,0821.6,5.00,000.00,020.8,020.0,000.0,029.3,022.5,25.1,0000.0,0004.44,0003.53,0003.38
2024-04-01 17:50:00,SystemResetWarning,0821.5,5.00,000.00,020.8,020.0,000.0,029.3,022.5,25.1,0000.0,0004.42,0003.53,0003.39
2024-04-01 17:51:00,SystemResetWarning,0821.6,5.01,000.00,020.7,020.0,000.0,029.3,022.5,25.2,0000.0,0005.40,0003.54,0003.40
2024-04-01 17:52:00,SystemResetWarning,0821.5,5.00,000.00,020.7,020.0,000.0,029.3,022.5,25.3,0000.0,0005.62,0003.55,0003.41
2024-04-01 17:53:00,SystemResetWarning,0821.5,4.99,000.00,020.7,020.0,000.0,029.3,022.5,25.3,0000.0,0005.63,0003.56,0003.43
2024-04-01 17:54:00,SystemResetWarning,0821.8,5.00,000.00,020.8,020.0,000.0,029.3,022.6,24.9,0000.0,0005.61,0003.57,0003.46
2024-04-01 17:55:00,SystemResetWarning,0821.9,5.01,000.00,020.8,020.0,000.0,029.3,022.6,25.0,0000.0,0006.45,0003.57,0003.47
2024-04-01 17:56:00,SystemResetWarning,0822.0,5.00,000.00,020.8,020.1,000.0,029.3,022.6,24.9,0000.0,0006.38,0003.55,0003.45
2024-04-01 17:57:00,SystemResetWarning,0822.0,4.99,000.00,020.8,020.1,000.0,029.3,022.6,25.0,0000.0,0006.46,0003.56,0003.45
2024-04-01 17:58:00,SystemResetWarning,0822.0,5.00,000.00,020.8,020.1,000.0,029.3,022.6,25.3,0000.0,0006.57,0003.57,0003.44
2024-04-01 17:59:00,SystemResetWarning,0822.0,5.02,000.00,020.8,020.0,000.0,029.3,022.6,25.3,0000.0,0006.59,0003.57,0003.43
